Year,Month,Day,Hour,Minute,Value (Times are PST for windspeed in km/hr)
2012,07,14,00,00,0.50
2012,07,14,00,01,0.00
2012,07,14,00,02,0.00
2012,07,14,00,03,0.00
2012,07,14,00,04,0.10
2012,07,14,00,05,0.00
2012,07,14,00,06,0.20
2012,07,14,00,07,1.40
2012,07,14,00,08,3.70
2012,07,14,00,09,1.00
2012,07,14,00,10,0.90
2012,07,14,00,11,0.60
2012,07,14,00,12,0.80
2012,07,14,00,13,0.00
2012,07,14,00,14,0.10
2012,07,14,00,15,0.00
2012,07,14,00,16,0.00
2012,07,14,00,17,0.00
2012,07,14,00,18,0.00
2012,07,14,00,19,0.00
2012,07,14,00,20,0.60
2012,07,14,00,21,2.80
2012,07,14,00,22,2.60
2012,07,14,00,23,0.70
2012,07,14,00,24,1.90
2012,07,14,00,25,0.20
2012,07,14,00,26,0.60
2012,07,14,00,27,0.20
2012,07,14,00,28,0.10
2012,07,14,00,29,0.00
2012,07,14,00,30,0.00
2012,07,14,00,31,0.00
2012,07,14,00,32,0.00
2012,07,14,00,33,0.70
2012,07,14,00,34,2.60
2012,07,14,00,35,3.40
2012,07,14,00,36,0.00
2012,07,14,00,37,0.00
2012,07,14,00,38,0.00
2012,07,14,00,39,0.10
2012,07,14,00,40,0.00
2012,07,14,00,41,0.00
2012,07,14,00,42,0.00
2012,07,14,00,43,0.00
2012,07,14,00,44,0.00
2012,07,14,00,45,0.00
2012,07,14,00,46,0.00
2012,07,14,00,47,0.10
2012,07,14,00,48,0.00
2012,07,14,00,49,0.00
2012,07,14,00,50,0.00
2012,07,14,00,51,0.00
2012,07,14,00,52,0.00
2012,07,14,00,53,0.00
2012,07,14,00,54,0.10
2012,07,14,00,55,1.60
2012,07,14,00,56,1.80
2012,07,14,00,57,0.10
2012,07,14,00,58,0.00
2012,07,14,00,59,0.00
2012,07,14,01,00,0.00
2012,07,14,01,01,0.00
2012,07,14,01,02,0.00
2012,07,14,01,03,0.00
2012,07,14,01,04,0.40
2012,07,14,01,05,0.30
2012,07,14,01,06,3.50
2012,07,14,01,07,0.80
2012,07,14,01,08,3.00
2012,07,14,01,09,2.90
2012,07,14,01,10,0.60
2012,07,14,01,11,2.80
2012,07,14,01,12,4.50
2012,07,14,01,13,2.40
2012,07,14,01,14,2.00
2012,07,14,01,15,3.30
2012,07,14,01,16,0.30
2012,07,14,01,17,0.20
2012,07,14,01,18,3.10
2012,07,14,01,19,3.50
2012,07,14,01,20,3.00
2012,07,14,01,21,3.10
2012,07,14,01,22,0.90
2012,07,14,01,23,1.00
2012,07,14,01,24,3.00
2012,07,14,01,25,1.20
2012,07,14,01,26,1.80
2012,07,14,01,27,0.70
2012,07,14,01,28,0.10
2012,07,14,01,29,3.50
2012,07,14,01,30,5.40
2012,07,14,01,31,4.30
2012,07,14,01,32,2.80
2012,07,14,01,33,0.70
2012,07,14,01,34,1.40
2012,07,14,01,35,3.80
2012,07,14,01,36,1.20
2012,07,14,01,37,3.30
2012,07,14,01,38,2.00
2012,07,14,01,39,5.10
2012,07,14,01,40,3.40
2012,07,14,01,41,2.90
2012,07,14,01,42,5.50
2012,07,14,01,43,3.90
2012,07,14,01,44,3.80
2012,07,14,01,45,4.40
2012,07,14,01,46,3.70
2012,07,14,01,47,5.10
2012,07,14,01,48,5.90
2012,07,14,01,49,5.60
2012,07,14,01,50,5.10
2012,07,14,01,51,4.90
2012,07,14,01,52,5.60
2012,07,14,01,53,5.00
2012,07,14,01,54,4.40
2012,07,14,01,55,5.30
2012,07,14,01,56,1.60
2012,07,14,01,57,6.10
2012,07,14,01,58,2.80
2012,07,14,01,59,5.60
2012,07,14,02,00,3.30
2012,07,14,02,01,3.10
2012,07,14,02,02,4.10
2012,07,14,02,03,1.80
2012,07,14,02,04,0.60
2012,07,14,02,05,0.10
2012,07,14,02,06,0.00
2012,07,14,02,07,0.20
2012,07,14,02,08,0.00
2012,07,14,02,09,0.00
2012,07,14,02,10,0.00
2012,07,14,02,11,1.00
2012,07,14,02,12,1.00
2012,07,14,02,13,0.10
2012,07,14,02,14,0.00
2012,07,14,02,15,0.00
2012,07,14,02,16,0.00
2012,07,14,02,17,0.00
2012,07,14,02,18,1.20
2012,07,14,02,19,0.40
2012,07,14,02,20,0.00
2012,07,14,02,21,0.10
2012,07,14,02,22,0.00
2012,07,14,02,23,0.00
2012,07,14,02,24,0.00
2012,07,14,02,25,0.00
2012,07,14,02,26,0.60
2012,07,14,02,27,0.50
2012,07,14,02,28,0.20
2012,07,14,02,29,0.00
2012,07,14,02,30,0.00
2012,07,14,02,31,0.00
2012,07,14,02,32,0.00
2012,07,14,02,33,0.00
2012,07,14,02,34,0.00
2012,07,14,02,35,0.00
2012,07,14,02,36,0.00
2012,07,14,02,37,0.10
2012,07,14,02,38,0.00
2012,07,14,02,39,0.00
2012,07,14,02,40,0.00
2012,07,14,02,41,0.20
2012,07,14,02,42,0.00
2012,07,14,02,43,0.00
2012,07,14,02,44,0.00
2012,07,14,02,45,0.00
2012,07,14,02,46,0.00
2012,07,14,02,47,0.00
2012,07,14,02,48,0.00
2012,07,14,02,49,0.00
2012,07,14,02,50,0.00
2012,07,14,02,51,0.00
2012,07,14,02,52,0.00
2012,07,14,02,53,0.00
2012,07,14,02,54,0.00
2012,07,14,02,55,0.00
2012,07,14,02,56,0.00
2012,07,14,02,57,0.00
2012,07,14,02,58,0.00
2012,07,14,02,59,0.00
2012,07,14,03,00,0.00
2012,07,14,03,01,0.00
2012,07,14,03,02,0.00
2012,07,14,03,03,0.00
2012,07,14,03,04,0.00
2012,07,14,03,05,0.00
2012,07,14,03,06,0.00
2012,07,14,03,07,0.00
2012,07,14,03,08,0.00
2012,07,14,03,09,0.00
2012,07,14,03,10,0.00
2012,07,14,03,11,0.00
2012,07,14,03,12,0.00
2012,07,14,03,13,0.10
2012,07,14,03,14,0.00
2012,07,14,03,15,0.00
2012,07,14,03,16,0.00
2012,07,14,03,17,0.00
2012,07,14,03,18,0.00
2012,07,14,03,19,0.00
2012,07,14,03,20,0.00
2012,07,14,03,21,0.00
2012,07,14,03,22,0.00
2012,07,14,03,23,0.00
2012,07,14,03,24,0.00
2012,07,14,03,25,0.00
2012,07,14,03,26,0.00
2012,07,14,03,27,0.00
2012,07,14,03,28,0.00
2012,07,14,03,29,0.00
2012,07,14,03,30,0.00
2012,07,14,03,31,0.00
2012,07,14,03,32,0.00
2012,07,14,03,33,0.00
2012,07,14,03,34,0.00
2012,07,14,03,35,0.00
2012,07,14,03,36,0.00
2012,07,14,03,37,0.00
2012,07,14,03,38,0.00
2012,07,14,03,39,0.00
2012,07,14,03,40,0.00
2012,07,14,03,41,0.00
2012,07,14,03,42,0.00
2012,07,14,03,43,0.00
2012,07,14,03,44,0.00
2012,07,14,03,45,0.00
2012,07,14,03,46,0.00
2012,07,14,03,47,0.00
2012,07,14,03,48,0.00
2012,07,14,03,49,0.00
2012,07,14,03,50,0.00
2012,07,14,03,51,0.00
2012,07,14,03,52,0.00
2012,07,14,03,53,0.00
2012,07,14,03,54,0.00
2012,07,14,03,55,0.00
2012,07,14,03,56,0.00
2012,07,14,03,57,0.10
2012,07,14,03,58,0.00
2012,07,14,03,59,0.00
2012,07,14,04,00,0.00
2012,07,14,04,01,0.10
2012,07,14,04,02,0.00
2012,07,14,04,03,0.00
2012,07,14,04,04,0.00
2012,07,14,04,05,0.00
2012,07,14,04,06,0.00
2012,07,14,04,07,0.30
2012,07,14,04,08,0.40
2012,07,14,04,09,0.00
2012,07,14,04,10,0.30
2012,07,14,04,11,0.00
2012,07,14,04,12,0.00
2012,07,14,04,13,0.00
2012,07,14,04,14,0.00
2012,07,14,04,15,0.00
2012,07,14,04,16,0.00
2012,07,14,04,17,0.10
2012,07,14,04,18,0.00
2012,07,14,04,19,0.00
2012,07,14,04,20,0.00
2012,07,14,04,21,0.00
2012,07,14,04,22,0.00
2012,07,14,04,23,0.00
2012,07,14,04,24,0.00
2012,07,14,04,25,0.00
2012,07,14,04,26,0.00
2012,07,14,04,27,0.00
2012,07,14,04,28,0.00
2012,07,14,04,29,0.00
2012,07,14,04,30,0.00
2012,07,14,04,31,0.00
2012,07,14,04,32,0.00
2012,07,14,04,33,0.00
2012,07,14,04,34,0.00
2012,07,14,04,35,0.00
2012,07,14,04,36,0.20
2012,07,14,04,37,0.00
2012,07,14,04,38,0.00
2012,07,14,04,39,0.30
2012,07,14,04,40,2.00
2012,07,14,04,41,2.70
2012,07,14,04,42,0.20
2012,07,14,04,43,0.10
2012,07,14,04,44,1.40
2012,07,14,04,45,3.90
2012,07,14,04,46,0.90
2012,07,14,04,47,1.90
2012,07,14,04,48,0.20
2012,07,14,04,49,1.00
2012,07,14,04,50,3.40
2012,07,14,04,51,1.40
2012,07,14,04,52,1.80
2012,07,14,04,53,3.10
2012,07,14,04,54,4.10
2012,07,14,04,55,2.90
2012,07,14,04,56,0.10
2012,07,14,04,57,0.10
2012,07,14,04,58,0.00
2012,07,14,04,59,0.00
2012,07,14,05,00,0.00
2012,07,14,05,01,0.00
2012,07,14,05,02,0.00
2012,07,14,05,03,0.10
2012,07,14,05,04,0.00
2012,07,14,05,05,0.00
2012,07,14,05,06,0.00
2012,07,14,05,07,0.00
2012,07,14,05,08,0.00
2012,07,14,05,09,0.00
2012,07,14,05,10,0.00
2012,07,14,05,11,0.00
2012,07,14,05,12,0.00
2012,07,14,05,13,0.00
2012,07,14,05,14,0.20
2012,07,14,05,15,1.10
2012,07,14,05,16,0.00
2012,07,14,05,17,0.30
2012,07,14,05,18,0.00
2012,07,14,05,19,0.00
2012,07,14,05,20,0.00
2012,07,14,05,21,0.00
2012,07,14,05,22,0.00
2012,07,14,05,23,0.00
2012,07,14,05,24,0.00
2012,07,14,05,25,0.00
2012,07,14,05,26,0.00
2012,07,14,05,27,0.00
2012,07,14,05,28,0.00
2012,07,14,05,29,0.00
2012,07,14,05,30,0.00
2012,07,14,05,31,0.00
2012,07,14,05,32,0.00
2012,07,14,05,33,0.00
2012,07,14,05,34,0.00
2012,07,14,05,35,0.00
2012,07,14,05,36,0.00
2012,07,14,05,37,0.00
2012,07,14,05,38,0.00
2012,07,14,05,39,1.00
2012,07,14,05,40,0.30
2012,07,14,05,41,0.00
2012,07,14,05,42,0.00
2012,07,14,05,43,0.00
2012,07,14,05,44,0.70
2012,07,14,05,45,0.80
2012,07,14,05,46,1.00
2012,07,14,05,47,1.90
2012,07,14,05,48,0.80
2012,07,14,05,49,0.00
2012,07,14,05,50,2.30
2012,07,14,05,51,4.00
2012,07,14,05,52,2.40
2012,07,14,05,53,0.30
2012,07,14,05,54,0.00
2012,07,14,05,55,1.90
2012,07,14,05,56,3.10
2012,07,14,05,57,3.40
2012,07,14,05,58,1.40
2012,07,14,05,59,3.40
2012,07,14,06,00,3.70
2012,07,14,06,01,3.40
2012,07,14,06,02,1.30
2012,07,14,06,03,0.20
2012,07,14,06,04,0.30
2012,07,14,06,05,0.70
2012,07,14,06,06,1.30
2012,07,14,06,07,0.00
2012,07,14,06,08,0.00
2012,07,14,06,09,0.00
2012,07,14,06,10,0.00
2012,07,14,06,11,0.00
2012,07,14,06,12,0.00
2012,07,14,06,13,0.00
2012,07,14,06,14,0.00
2012,07,14,06,15,0.00
2012,07,14,06,16,0.00
2012,07,14,06,17,0.00
2012,07,14,06,18,0.00
2012,07,14,06,19,0.00
2012,07,14,06,20,0.00
2012,07,14,06,21,0.00
2012,07,14,06,22,0.00
2012,07,14,06,23,0.00
2012,07,14,06,24,0.00
2012,07,14,06,25,0.00
2012,07,14,06,26,0.00
2012,07,14,06,27,0.00
2012,07,14,06,28,0.00
2012,07,14,06,29,0.00
2012,07,14,06,30,0.00
2012,07,14,06,31,0.00
2012,07,14,06,32,0.00
2012,07,14,06,33,0.00
2012,07,14,06,34,0.20
2012,07,14,06,35,0.00
2012,07,14,06,36,0.00
2012,07,14,06,37,0.00
2012,07,14,06,38,0.10
2012,07,14,06,39,0.20
2012,07,14,06,40,0.10
2012,07,14,06,41,0.00
2012,07,14,06,42,0.00
2012,07,14,06,43,0.00
2012,07,14,06,44,0.00
2012,07,14,06,45,0.00
2012,07,14,06,46,0.00
2012,07,14,06,47,0.00
2012,07,14,06,48,0.00
2012,07,14,06,49,0.00
2012,07,14,06,50,0.00
2012,07,14,06,51,0.00
2012,07,14,06,52,0.00
2012,07,14,06,53,0.00
2012,07,14,06,54,0.00
2012,07,14,06,55,0.00
2012,07,14,06,56,0.00
2012,07,14,06,57,0.00
2012,07,14,06,58,0.00
2012,07,14,06,59,0.00
2012,07,14,07,00,0.00
2012,07,14,07,01,0.20
2012,07,14,07,02,0.20
2012,07,14,07,03,0.00
2012,07,14,07,04,0.00
2012,07,14,07,05,0.00
2012,07,14,07,06,0.00
2012,07,14,07,07,0.00
2012,07,14,07,08,0.00
2012,07,14,07,09,0.00
2012,07,14,07,10,0.00
2012,07,14,07,11,0.00
2012,07,14,07,12,0.00
2012,07,14,07,13,0.00
2012,07,14,07,14,0.00
2012,07,14,07,15,0.00
2012,07,14,07,16,0.00
2012,07,14,07,17,0.00
2012,07,14,07,18,0.00
2012,07,14,07,19,0.00
2012,07,14,07,20,0.00
2012,07,14,07,21,0.00
2012,07,14,07,22,0.00
2012,07,14,07,23,0.00
2012,07,14,07,24,0.00
2012,07,14,07,25,0.00
2012,07,14,07,26,0.00
2012,07,14,07,27,0.00
2012,07,14,07,28,0.00
2012,07,14,07,29,0.00
2012,07,14,07,30,0.00
2012,07,14,07,31,0.00
2012,07,14,07,32,0.00
2012,07,14,07,33,0.00
2012,07,14,07,34,0.00
2012,07,14,07,35,0.00
2012,07,14,07,36,0.00
2012,07,14,07,37,0.00
2012,07,14,07,38,0.10
2012,07,14,07,39,0.00
2012,07,14,07,40,0.00
2012,07,14,07,41,0.00
2012,07,14,07,42,0.00
2012,07,14,07,43,0.00
2012,07,14,07,44,0.00
2012,07,14,07,45,0.00
2012,07,14,07,46,0.00
2012,07,14,07,47,0.00
2012,07,14,07,48,0.00
2012,07,14,07,49,0.00
2012,07,14,07,50,0.00
2012,07,14,07,51,0.00
2012,07,14,07,52,0.10
2012,07,14,07,53,0.10
2012,07,14,07,54,0.70
2012,07,14,07,55,0.10
2012,07,14,07,56,0.10
2012,07,14,07,57,1.70
2012,07,14,07,58,1.90
2012,07,14,07,59,0.60
2012,07,14,08,00,1.00
2012,07,14,08,01,0.30
2012,07,14,08,02,2.20
2012,07,14,08,03,3.20
2012,07,14,08,04,3.60
2012,07,14,08,05,2.10
2012,07,14,08,06,2.00
2012,07,14,08,07,0.30
2012,07,14,08,08,0.70
2012,07,14,08,09,0.10
2012,07,14,08,10,0.50
2012,07,14,08,11,0.10
2012,07,14,08,12,0.00
2012,07,14,08,13,0.00
2012,07,14,08,14,0.00
2012,07,14,08,15,0.00
2012,07,14,08,16,0.00
2012,07,14,08,17,0.00
2012,07,14,08,18,0.00
2012,07,14,08,19,0.00
2012,07,14,08,20,0.00
2012,07,14,08,21,0.00
2012,07,14,08,22,0.00
2012,07,14,08,23,0.00
2012,07,14,08,24,0.00
2012,07,14,08,25,0.00
2012,07,14,08,26,0.00
2012,07,14,08,27,0.00
2012,07,14,08,28,0.00
2012,07,14,08,29,0.00
2012,07,14,08,30,0.00
2012,07,14,08,31,0.00
2012,07,14,08,32,0.60
2012,07,14,08,33,3.10
2012,07,14,08,34,3.00
2012,07,14,08,35,0.20
2012,07,14,08,36,0.10
2012,07,14,08,37,0.60
2012,07,14,08,38,0.20
2012,07,14,08,39,0.00
2012,07,14,08,40,0.00
2012,07,14,08,41,0.00
2012,07,14,08,42,0.10
2012,07,14,08,43,0.10
2012,07,14,08,44,0.00
2012,07,14,08,45,0.00
2012,07,14,08,46,0.00
2012,07,14,08,47,0.00
2012,07,14,08,48,0.00
2012,07,14,08,49,0.00
2012,07,14,08,50,0.20
2012,07,14,08,51,0.80
2012,07,14,08,52,1.00
2012,07,14,08,53,0.20
2012,07,14,08,54,0.10
2012,07,14,08,55,0.20
2012,07,14,08,56,0.10
2012,07,14,08,57,0.20
2012,07,14,08,58,0.10
2012,07,14,08,59,0.40
2012,07,14,09,00,2.10
2012,07,14,09,01,0.20
2012,07,14,09,02,0.20
2012,07,14,09,03,0.30
2012,07,14,09,04,0.00
2012,07,14,09,05,0.30
2012,07,14,09,06,0.10
2012,07,14,09,07,0.60
2012,07,14,09,08,0.90
2012,07,14,09,09,1.30
2012,07,14,09,10,1.00
2012,07,14,09,11,0.20
2012,07,14,09,12,0.10
2012,07,14,09,13,0.90
2012,07,14,09,14,2.50
2012,07,14,09,15,4.70
2012,07,14,09,16,4.30
2012,07,14,09,17,5.10
2012,07,14,09,18,2.40
2012,07,14,09,19,5.20
2012,07,14,09,20,3.30
2012,07,14,09,21,3.10
2012,07,14,09,22,4.60
2012,07,14,09,23,3.10
2012,07,14,09,24,1.50
2012,07,14,09,25,3.90
2012,07,14,09,26,2.10
2012,07,14,09,27,1.90
2012,07,14,09,28,2.20
2012,07,14,09,29,1.20
2012,07,14,09,30,0.90
2012,07,14,09,31,0.60
2012,07,14,09,32,0.20
2012,07,14,09,33,0.00
2012,07,14,09,34,0.10
2012,07,14,09,35,0.70
2012,07,14,09,36,0.80
2012,07,14,09,37,1.60
2012,07,14,09,38,1.10
2012,07,14,09,39,1.00
2012,07,14,09,40,0.60
2012,07,14,09,41,0.30
2012,07,14,09,42,0.00
2012,07,14,09,43,0.00
2012,07,14,09,44,0.00
2012,07,14,09,45,0.30
2012,07,14,09,46,0.00
2012,07,14,09,47,0.30
2012,07,14,09,48,0.20
2012,07,14,09,49,1.00
2012,07,14,09,50,0.40
2012,07,14,09,51,1.70
2012,07,14,09,52,0.10
2012,07,14,09,53,0.00
2012,07,14,09,54,2.30
2012,07,14,09,55,4.00
2012,07,14,09,56,2.50
2012,07,14,09,57,1.20
2012,07,14,09,58,1.50
2012,07,14,09,59,2.10
2012,07,14,10,00,0.60
2012,07,14,10,01,0.10
2012,07,14,10,02,1.30
2012,07,14,10,03,2.50
2012,07,14,10,04,2.70
2012,07,14,10,05,0.60
2012,07,14,10,06,0.10
2012,07,14,10,07,1.20
2012,07,14,10,08,0.00
2012,07,14,10,09,0.60
2012,07,14,10,10,0.80
2012,07,14,10,11,0.30
2012,07,14,10,12,0.50
2012,07,14,10,13,3.10
2012,07,14,10,14,0.80
2012,07,14,10,15,0.10
2012,07,14,10,16,0.20
2012,07,14,10,17,0.10
2012,07,14,10,18,0.00
2012,07,14,10,19,0.10
2012,07,14,10,20,0.00
2012,07,14,10,21,0.60
2012,07,14,10,22,0.00
2012,07,14,10,23,0.10
2012,07,14,10,24,1.10
2012,07,14,10,25,0.60
2012,07,14,10,26,2.00
2012,07,14,10,27,0.50
2012,07,14,10,28,0.50
2012,07,14,10,29,0.10
2012,07,14,10,30,0.60
2012,07,14,10,31,0.60
2012,07,14,10,32,0.00
2012,07,14,10,33,0.00
2012,07,14,10,34,0.10
2012,07,14,10,35,0.20
2012,07,14,10,36,0.10
2012,07,14,10,37,0.10
2012,07,14,10,38,0.20
2012,07,14,10,39,0.30
2012,07,14,10,40,1.90
2012,07,14,10,41,0.20
2012,07,14,10,42,0.20
2012,07,14,10,43,0.60
2012,07,14,10,44,0.40
2012,07,14,10,45,0.20
2012,07,14,10,46,0.50
2012,07,14,10,47,0.20
2012,07,14,10,48,0.00
2012,07,14,10,49,1.00
2012,07,14,10,50,2.20
2012,07,14,10,51,2.40
2012,07,14,10,52,3.00
2012,07,14,10,53,0.80
2012,07,14,10,54,3.80
2012,07,14,10,55,2.60
2012,07,14,10,56,1.00
2012,07,14,10,57,1.90
2012,07,14,10,58,5.30
2012,07,14,10,59,2.40
2012,07,14,11,00,5.40
2012,07,14,11,01,2.60
2012,07,14,11,02,7.60
2012,07,14,11,03,5.00
2012,07,14,11,04,6.60
2012,07,14,11,05,5.70
2012,07,14,11,06,2.90
2012,07,14,11,07,1.10
2012,07,14,11,08,5.50
2012,07,14,11,09,5.20
2012,07,14,11,10,6.40
2012,07,14,11,11,5.60
2012,07,14,11,12,3.90
2012,07,14,11,13,2.10
2012,07,14,11,14,4.30
2012,07,14,11,15,1.50
2012,07,14,11,16,1.50
2012,07,14,11,17,2.20
2012,07,14,11,18,3.40
2012,07,14,11,19,2.70
2012,07,14,11,20,4.40
2012,07,14,11,21,3.60
2012,07,14,11,22,3.60
2012,07,14,11,23,0.50
2012,07,14,11,24,0.90
2012,07,14,11,25,3.60
2012,07,14,11,26,2.50
2012,07,14,11,27,0.00
2012,07,14,11,28,0.10
2012,07,14,11,29,2.00
2012,07,14,11,30,1.80
2012,07,14,11,31,0.30
2012,07,14,11,32,2.10
2012,07,14,11,33,1.40
2012,07,14,11,34,2.50
2012,07,14,11,35,3.70
2012,07,14,11,36,2.30
2012,07,14,11,37,3.10
2012,07,14,11,38,3.90
2012,07,14,11,39,6.00
2012,07,14,11,40,4.70
2012,07,14,11,41,0.40
2012,07,14,11,42,0.70
2012,07,14,11,43,2.60
2012,07,14,11,44,1.90
2012,07,14,11,45,0.40
2012,07,14,11,46,0.00
2012,07,14,11,47,0.60
2012,07,14,11,48,3.60
2012,07,14,11,49,2.50
2012,07,14,11,50,0.10
2012,07,14,11,51,1.50
2012,07,14,11,52,0.00
2012,07,14,11,53,0.10
2012,07,14,11,54,4.40
2012,07,14,11,55,2.00
2012,07,14,11,56,1.10
2012,07,14,11,57,1.20
2012,07,14,11,58,3.80
2012,07,14,11,59,1.30
2012,07,14,12,00,1.60
2012,07,14,12,01,4.90
2012,07,14,12,02,0.30
2012,07,14,12,03,1.00
2012,07,14,12,04,1.00
2012,07,14,12,05,4.20
2012,07,14,12,06,0.70
2012,07,14,12,07,2.70
2012,07,14,12,08,2.30
2012,07,14,12,09,0.20
2012,07,14,12,10,0.60
2012,07,14,12,11,1.40
2012,07,14,12,12,0.20
2012,07,14,12,13,1.00
2012,07,14,12,14,2.40
2012,07,14,12,15,3.90
2012,07,14,12,16,4.80
2012,07,14,12,17,2.90
2012,07,14,12,18,6.80
2012,07,14,12,19,3.00
2012,07,14,12,20,5.40
2012,07,14,12,21,1.20
2012,07,14,12,22,0.20
2012,07,14,12,23,0.90
2012,07,14,12,24,0.60
2012,07,14,12,25,4.60
2012,07,14,12,26,6.10
2012,07,14,12,27,5.80
2012,07,14,12,28,4.40
2012,07,14,12,29,1.30
2012,07,14,12,30,3.20
2012,07,14,12,31,2.80
2012,07,14,12,32,3.30
2012,07,14,12,33,6.20
2012,07,14,12,34,4.20
2012,07,14,12,35,2.70
2012,07,14,12,36,1.40
2012,07,14,12,37,4.00
2012,07,14,12,38,0.90
2012,07,14,12,39,2.20
2012,07,14,12,40,0.80
2012,07,14,12,41,4.40
2012,07,14,12,42,2.80
2012,07,14,12,43,0.60
2012,07,14,12,44,3.60
2012,07,14,12,45,2.60
2012,07,14,12,46,2.20
2012,07,14,12,47,4.30
2012,07,14,12,48,5.10
2012,07,14,12,49,0.60
2012,07,14,12,50,1.80
2012,07,14,12,51,3.90
2012,07,14,12,52,0.70
2012,07,14,12,53,1.40
2012,07,14,12,54,0.00
2012,07,14,12,55,3.10
2012,07,14,12,56,1.90
2012,07,14,12,57,1.30
2012,07,14,12,58,1.80
2012,07,14,12,59,4.00
2012,07,14,13,00,3.00
2012,07,14,13,01,0.20
2012,07,14,13,02,1.90
2012,07,14,13,03,4.00
2012,07,14,13,04,0.60
2012,07,14,13,05,2.50
2012,07,14,13,06,3.10
2012,07,14,13,07,2.70
2012,07,14,13,08,0.70
2012,07,14,13,09,0.20
2012,07,14,13,10,0.00
2012,07,14,13,11,3.20
2012,07,14,13,12,0.70
2012,07,14,13,13,0.60
2012,07,14,13,14,1.00
2012,07,14,13,15,4.60
2012,07,14,13,16,2.50
2012,07,14,13,17,2.40
2012,07,14,13,18,2.70
2012,07,14,13,19,0.70
2012,07,14,13,20,2.20
2012,07,14,13,21,2.10
2012,07,14,13,22,6.30
2012,07,14,13,23,1.10
2012,07,14,13,24,0.10
2012,07,14,13,25,0.20
2012,07,14,13,26,2.40
2012,07,14,13,27,1.60
2012,07,14,13,28,5.60
2012,07,14,13,29,3.00
2012,07,14,13,30,2.10
2012,07,14,13,31,1.90
2012,07,14,13,32,3.10
2012,07,14,13,33,7.30
2012,07,14,13,34,8.20
2012,07,14,13,35,7.60
2012,07,14,13,36,4.60
2012,07,14,13,37,4.10
2012,07,14,13,38,4.20
2012,07,14,13,39,3.90
2012,07,14,13,40,0.10
2012,07,14,13,41,0.20
2012,07,14,13,42,4.00
2012,07,14,13,43,5.40
2012,07,14,13,44,1.40
2012,07,14,13,45,3.90
2012,07,14,13,46,2.00
2012,07,14,13,47,5.80
2012,07,14,13,48,2.40
2012,07,14,13,49,4.00
2012,07,14,13,50,2.40
2012,07,14,13,51,2.40
2012,07,14,13,52,1.90
2012,07,14,13,53,4.80
2012,07,14,13,54,1.40
2012,07,14,13,55,2.50
2012,07,14,13,56,3.50
2012,07,14,13,57,4.00
2012,07,14,13,58,3.60
2012,07,14,13,59,5.70
2012,07,14,14,00,2.20
2012,07,14,14,01,2.70
2012,07,14,14,02,2.30
2012,07,14,14,03,3.10
2012,07,14,14,04,5.50
2012,07,14,14,05,2.50
2012,07,14,14,06,4.00
2012,07,14,14,07,1.00
2012,07,14,14,08,0.30
2012,07,14,14,09,4.80
2012,07,14,14,10,5.00
2012,07,14,14,11,5.20
2012,07,14,14,12,5.30
2012,07,14,14,13,7.70
2012,07,14,14,14,2.60
2012,07,14,14,15,3.40
2012,07,14,14,16,1.80
2012,07,14,14,17,0.50
2012,07,14,14,18,4.90
2012,07,14,14,19,7.50
2012,07,14,14,20,2.60
2012,07,14,14,21,7.20
2012,07,14,14,22,4.80
2012,07,14,14,23,7.00
2012,07,14,14,24,6.20
2012,07,14,14,25,5.40
2012,07,14,14,26,5.30
2012,07,14,14,27,4.20
2012,07,14,14,28,3.50
2012,07,14,14,29,3.00
2012,07,14,14,30,4.10
2012,07,14,14,31,3.60
2012,07,14,14,32,8.00
2012,07,14,14,33,6.90
2012,07,14,14,34,4.30
2012,07,14,14,35,4.40
2012,07,14,14,36,7.20
2012,07,14,14,37,5.60
2012,07,14,14,38,4.20
2012,07,14,14,39,6.50
2012,07,14,14,40,8.90
2012,07,14,14,41,3.90
2012,07,14,14,42,6.10
2012,07,14,14,43,3.10
2012,07,14,14,44,3.10
2012,07,14,14,45,4.00
2012,07,14,14,46,8.60
2012,07,14,14,47,4.70
2012,07,14,14,48,6.80
2012,07,14,14,49,5.50
2012,07,14,14,50,1.50
2012,07,14,14,51,1.30
2012,07,14,14,52,3.60
2012,07,14,14,53,4.00
2012,07,14,14,54,3.80
2012,07,14,14,55,2.40
2012,07,14,14,56,1.30
2012,07,14,14,57,5.00
2012,07,14,14,58,6.80
2012,07,14,14,59,4.30
2012,07,14,15,00,7.20
2012,07,14,15,01,4.70
2012,07,14,15,02,8.80
2012,07,14,15,03,4.50
2012,07,14,15,04,7.40
2012,07,14,15,05,6.80
2012,07,14,15,06,1.80
2012,07,14,15,07,2.80
2012,07,14,15,08,6.10
2012,07,14,15,09,6.30
2012,07,14,15,10,6.80
2012,07,14,15,11,3.10
2012,07,14,15,12,5.50
2012,07,14,15,13,7.50
2012,07,14,15,14,8.10
2012,07,14,15,15,4.40
2012,07,14,15,16,4.70
2012,07,14,15,17,3.60
2012,07,14,15,18,4.30
2012,07,14,15,19,3.60
2012,07,14,15,20,4.10
2012,07,14,15,21,6.40
2012,07,14,15,22,3.90
2012,07,14,15,23,2.60
2012,07,14,15,24,4.60
2012,07,14,15,25,3.80
2012,07,14,15,26,4.80
2012,07,14,15,27,2.70
2012,07,14,15,28,2.50
2012,07,14,15,29,0.30
2012,07,14,15,30,2.90
2012,07,14,15,31,4.30
2012,07,14,15,32,7.60
2012,07,14,15,33,8.00
2012,07,14,15,34,3.50
2012,07,14,15,35,6.00
2012,07,14,15,36,4.90
2012,07,14,15,37,1.50
2012,07,14,15,38,6.10
2012,07,14,15,39,2.00
2012,07,14,15,40,1.00
2012,07,14,15,41,4.80
2012,07,14,15,42,3.90
2012,07,14,15,43,8.70
2012,07,14,15,44,7.60
2012,07,14,15,45,8.00
2012,07,14,15,46,5.80
2012,07,14,15,47,5.00
2012,07,14,15,48,2.90
2012,07,14,15,49,4.80
2012,07,14,15,50,2.70
2012,07,14,15,51,4.90
2012,07,14,15,52,5.20
2012,07,14,15,53,6.10
2012,07,14,15,54,6.80
2012,07,14,15,55,4.70
2012,07,14,15,56,5.90
2012,07,14,15,57,6.90
2012,07,14,15,58,7.10
2012,07,14,15,59,8.90
2012,07,14,16,00,4.80
2012,07,14,16,01,5.00
2012,07,14,16,02,6.40
2012,07,14,16,03,9.30
2012,07,14,16,04,3.70
2012,07,14,16,05,5.80
2012,07,14,16,06,8.80
2012,07,14,16,07,9.30
2012,07,14,16,08,9.70
2012,07,14,16,09,10.10
2012,07,14,16,10,5.60
2012,07,14,16,11,2.80
2012,07,14,16,12,8.70
2012,07,14,16,13,5.70
2012,07,14,16,14,8.90
2012,07,14,16,15,5.20
2012,07,14,16,16,2.90
2012,07,14,16,17,7.50
2012,07,14,16,18,8.00
2012,07,14,16,19,0.70
2012,07,14,16,20,5.70
2012,07,14,16,21,5.20
2012,07,14,16,22,4.70
2012,07,14,16,23,5.00
2012,07,14,16,24,4.80
2012,07,14,16,25,5.10
2012,07,14,16,26,5.50
2012,07,14,16,27,4.90
2012,07,14,16,28,11.80
2012,07,14,16,29,8.40
2012,07,14,16,30,8.90
2012,07,14,16,31,7.60
2012,07,14,16,32,7.00
2012,07,14,16,33,8.80
2012,07,14,16,34,5.60
2012,07,14,16,35,6.20
2012,07,14,16,36,6.90
2012,07,14,16,37,4.10
2012,07,14,16,38,9.10
2012,07,14,16,39,6.80
2012,07,14,16,40,8.70
2012,07,14,16,41,7.60
2012,07,14,16,42,8.50
2012,07,14,16,43,7.50
2012,07,14,16,44,8.80
2012,07,14,16,45,6.40
2012,07,14,16,46,7.80
2012,07,14,16,47,8.70
2012,07,14,16,48,4.00
2012,07,14,16,49,9.30
2012,07,14,16,50,7.10
2012,07,14,16,51,7.60
2012,07,14,16,52,10.20
2012,07,14,16,53,6.40
2012,07,14,16,54,8.20
2012,07,14,16,55,6.90
2012,07,14,16,56,4.30
2012,07,14,16,57,7.00
2012,07,14,16,58,4.10
2012,07,14,16,59,5.30
2012,07,14,17,00,4.90
2012,07,14,17,01,3.00
2012,07,14,17,02,4.30
2012,07,14,17,03,4.60
2012,07,14,17,04,4.10
2012,07,14,17,05,7.20
2012,07,14,17,06,2.90
2012,07,14,17,07,5.60
2012,07,14,17,08,3.00
2012,07,14,17,09,5.10
2012,07,14,17,10,5.90
2012,07,14,17,11,5.20
2012,07,14,17,12,3.70
2012,07,14,17,13,10.00
2012,07,14,17,14,6.80
2012,07,14,17,15,6.80
2012,07,14,17,16,7.20
2012,07,14,17,17,8.80
2012,07,14,17,18,6.40
2012,07,14,17,19,3.60
2012,07,14,17,20,6.30
2012,07,14,17,21,4.50
2012,07,14,17,22,2.60
2012,07,14,17,23,8.00
2012,07,14,17,24,6.70
2012,07,14,17,25,7.60
2012,07,14,17,26,8.00
2012,07,14,17,27,3.10
2012,07,14,17,28,3.90
2012,07,14,17,29,3.10
2012,07,14,17,30,2.60
2012,07,14,17,31,5.50
2012,07,14,17,32,14.20
2012,07,14,17,33,10.40
2012,07,14,17,34,10.40
2012,07,14,17,35,10.10
2012,07,14,17,36,5.10
2012,07,14,17,37,10.80
2012,07,14,17,38,7.10
2012,07,14,17,39,7.60
2012,07,14,17,40,5.30
2012,07,14,17,41,8.70
2012,07,14,17,42,4.60
2012,07,14,17,43,3.90
2012,07,14,17,44,4.70
2012,07,14,17,45,11.30
2012,07,14,17,46,7.40
2012,07,14,17,47,5.30
2012,07,14,17,48,9.50
2012,07,14,17,49,6.60
2012,07,14,17,50,6.40
2012,07,14,17,51,8.00
2012,07,14,17,52,5.10
2012,07,14,17,53,3.50
2012,07,14,17,54,10.60
2012,07,14,17,55,5.90
2012,07,14,17,56,4.10
2012,07,14,17,57,4.30
2012,07,14,17,58,5.90
2012,07,14,17,59,10.50
2012,07,14,18,00,7.70
2012,07,14,18,01,2.10
2012,07,14,18,02,3.80
2012,07,14,18,03,4.40
2012,07,14,18,04,3.70
2012,07,14,18,05,3.60
2012,07,14,18,06,4.60